Greenville, AL

8:49 AM CDT on October 19, 2017 (GMT -0500)
Greenville Municipal

Weather History for KPRN - December, 2012

Change the Weather History Date:

Monday, December 24, 2012

  Actual Average Record
Temperature  
Mean Temperature 60 °F -  
Max Temperature 72 °F 59 °F 80 °F (1931)
Min Temperature 46 °F 36 °F 5 °F (1989)
Degree Days  
Heating Degree Days 5    
Growing Degree Days 10 (Base 50)    
Moisture  
Dew Point 54 °F    
Average Humidity 87    
Maximum Humidity 100    
Minimum Humidity 51    
Precipitation  
Precipitation 0.66 in - - ()
Sea Level Pressure  
Sea Level Pressure 29.91 in    
Wind  
Wind Speed 6 mph (SSW)    
Max Wind Speed 12 mph    
Max Gust Speed 18 mph    
Visibility 8 miles    
Events Rain , Thunderstorm    
Averages and records for this station are not official NWS values.
T = Trace of Precipitation, MM = Missing Value Source: NWS Daily Summary

Daily Weather History Graph

Daily Weather History Graph

Search for Another Location

Airport or City:

Trip Planner

Search our weather history database for the weather conditions in past years. The results will help you decide how hot, cold, wet, or windy it might be!

Date:

Astronomy

Dec. 24, 2012 Rise Set
Actual Time 6:44 AM CST 4:48 PM CST
Civil Twilight 6:17 AM CST 5:15 PM CST
Nautical Twilight 5:46 AM CST 5:46 PM CST
Astronomical Twilight 5:16 AM CST 6:15 PM CST
Moon 2:11 PM CST (12/24) 3:26 AM CST (12/24)
Length of Visible Light 10h 58m
Length of Day
10h 04m
Waxing Gibbous, 88% of the Moon is Illuminated
Dec 24
Waxing Gibbous
Dec 28
Full
Jan 4
Last Quarter
Jan 11
New
Jan 18
First Quarter

Hourly Weather History & Observations

Time (CST) Temp. Dew Point Humidity Pressure Visibility Wind Dir Wind Speed Gust Speed Precip Events Conditions
12:56 AM 50.0 °F 44.1 °F 80% 30.00 in 10.0 mi SSE 6.9 mph - 0.00 in   Overcast
1:56 AM 51.1 °F 45.0 °F 80% 29.99 in 10.0 mi SSE 4.6 mph - N/A   Overcast
2:56 AM 51.1 °F 46.0 °F 83% 29.97 in 10.0 mi SSE 4.6 mph - N/A   Mostly Cloudy
3:37 AM 51.8 °F 46.4 °F 82% 29.95 in 10.0 mi South 4.6 mph - N/A   Overcast
3:56 AM 52.0 °F 46.9 °F 83% 29.94 in 10.0 mi SSE 4.6 mph - N/A   Overcast
4:17 AM 51.8 °F 48.2 °F 88% 29.93 in 10.0 mi SSE 4.6 mph - 0.00 in   Scattered Clouds
4:43 AM 51.8 °F 48.2 °F 88% 29.94 in 10.0 mi SSE 6.9 mph - 0.00 in   Mostly Cloudy
4:56 AM 53.1 °F 48.9 °F 86% 29.93 in 10.0 mi SSE 5.8 mph - 0.00 in   Overcast
5:14 AM 51.8 °F 48.2 °F 88% 29.93 in 10.0 mi South 4.6 mph - 0.01 in   Mostly Cloudy
5:39 AM 53.6 °F 50.0 °F 88% 29.92 in 10.0 mi SSE 3.5 mph - 0.01 in   Overcast
5:56 AM 53.1 °F 50.0 °F 89% 29.92 in 10.0 mi South 5.8 mph - 0.01 in   Mostly Cloudy
6:14 AM 55.4 °F 51.8 °F 88% 29.92 in 10.0 mi South 4.6 mph - N/A   Mostly Cloudy
6:27 AM 55.4 °F 51.8 °F 88% 29.92 in 10.0 mi South 5.8 mph - 0.00 in Rain Light Rain
6:40 AM 55.4 °F 53.6 °F 94% 29.91 in 8.0 mi South 8.1 mph - 0.01 in Rain Rain
6:49 AM 57.2 °F 53.6 °F 88% 29.90 in 4.0 mi South 9.2 mph - 0.06 in Rain Light Rain
6:56 AM 57.0 °F 55.0 °F 93% 29.90 in 3.0 mi SSE 5.8 mph - 0.14 in Rain Light Rain
7:56 AM 57.9 °F 55.9 °F 93% 29.90 in 10.0 mi South 8.1 mph - 0.05 in   Mostly Cloudy
8:23 AM 57.2 °F 55.4 °F 94% 29.91 in 3.0 mi South 5.8 mph - 0.03 in Rain Light Rain
8:35 AM 57.2 °F 57.2 °F 100% 29.91 in 10.0 mi SSW 5.8 mph - 0.03 in Rain Light Rain
8:38 AM 57.2 °F 57.2 °F 100% 29.91 in 10.0 mi SSW 6.9 mph - 0.03 in Rain Light Rain
8:56 AM 60.1 °F 57.9 °F 93% 29.91 in 6.0 mi SSW 8.1 mph - 0.05 in Rain Light Rain
9:06 AM 60.8 °F 57.2 °F 88% 29.92 in 1.5 mi SSW 11.5 mph 18.4 mph 0.10 in Rain Heavy Rain
9:16 AM 60.8 °F 59.0 °F 94% 29.91 in 3.0 mi South 10.4 mph - 0.12 in Rain Light Rain
9:31 AM 60.8 °F 59.0 °F 94% 29.92 in 1.8 mi SW 6.9 mph - 0.18 in Rain Heavy Rain
9:38 AM 60.8 °F 59.0 °F 94% 29.92 in 1.0 mi WSW 5.8 mph - 0.26 in Rain , Thunderstorm Heavy Thunderstorms and Rain
9:56 AM 60.1 °F 59.0 °F 96% 29.91 in 1.5 mi SSW 4.6 mph - 0.37 in Rain , Thunderstorm Thunderstorms and Rain
9:58 AM 60.8 °F 59.0 °F 94% 29.91 in 3.0 mi South 3.5 mph - 0.01 in Rain , Thunderstorm Thunderstorms and Rain
10:04 AM 60.8 °F 60.8 °F 100% 29.91 in 3.0 mi South 3.5 mph - 0.02 in Rain Rain
10:35 AM 62.6 °F 60.8 °F 94% 29.91 in 8.0 mi West 3.5 mph - 0.03 in Rain Light Rain
10:48 AM 64.4 °F 62.6 °F 94% 29.90 in 10.0 mi WSW 4.6 mph - 0.03 in   Scattered Clouds
10:56 AM 64.9 °F 62.1 °F 90% 29.89 in 10.0 mi WSW 8.1 mph - 0.03 in   Scattered Clouds
11:12 AM 66.2 °F 62.6 °F 88% 29.89 in 10.0 mi West 11.5 mph - N/A   Mostly Cloudy
11:33 AM 66.2 °F 62.6 °F 88% 29.88 in 10.0 mi West 10.4 mph 18.4 mph 0.01 in   Overcast
11:43 AM 68.0 °F 62.6 °F 83% 29.88 in 10.0 mi West 10.4 mph 18.4 mph 0.01 in   Overcast
11:56 AM 66.9 °F 60.1 °F 79% 29.87 in 10.0 mi West 10.4 mph 17.3 mph 0.01 in   Mostly Cloudy
12:09 PM 66.2 °F 60.8 °F 83% 29.87 in 10.0 mi West 11.5 mph 17.3 mph N/A   Partly Cloudy
12:56 PM 66.9 °F 57.0 °F 70% 29.86 in 10.0 mi West 11.5 mph - N/A   Clear
1:56 PM 72.0 °F 55.0 °F 55% 29.85 in 10.0 mi West 9.2 mph - N/A   Scattered Clouds
2:56 PM 72.0 °F 53.1 °F 51% 29.85 in 10.0 mi West 9.2 mph - N/A   Scattered Clouds
3:56 PM 70.0 °F 54.0 °F 57% 29.86 in 10.0 mi West 6.9 mph - N/A   Clear
4:56 PM 64.9 °F 53.1 °F 65% 29.87 in 10.0 mi Calm Calm - N/A   Clear
5:56 PM 57.9 °F 54.0 °F 87% 29.88 in 10.0 mi Calm Calm - N/A   Clear
6:56 PM 55.0 °F 52.0 °F 89% 29.89 in 10.0 mi Calm Calm - N/A   Partly Cloudy
7:56 PM 53.1 °F 51.1 °F 93% 29.91 in 9.0 mi Calm Calm - N/A   Clear
8:56 PM 51.1 °F 48.9 °F 92% 29.91 in 6.0 mi Calm Calm - N/A   Clear
9:56 PM 52.0 °F 48.9 °F 89% 29.92 in 6.0 mi Calm Calm - N/A   Clear
10:56 PM 48.9 °F 46.9 °F 93% 29.91 in 6.0 mi Calm Calm - N/A   Clear
11:56 PM 46.9 °F 45.0 °F 93% 29.90 in 5.0 mi Calm Calm - N/A   Clear